Regional Weather Roundup
Issued by NWS Albany, NY

Home | Current Version | Previous Version | Text Only | Print | Product List | Glossary On
Versions: 1 2 3 4 5 6 7 8 9 10 11 12 13 14 15 16 17 18 19 20 21 22 23 24 25 26 27 28 29 30 31 32 33 34 35 36 37 38 39 40 41 42 43 44 45 46 47 48 49 50
000
ASUS41 KALY 222310
RWRALY

NEW YORK STATE HOURLY WEATHER ROUNDUP
NATIONAL WEATHER SERVICE ALBANY NY
700 PM EDT FRI MAY 22 2015

NOTE: "FAIR" INDICATES FEW OR NO CLOUDS BELOW 12,000 FEET WITH NO
SIGNIFICANT WEATHER AND/OR NO OBSTRUCTIONS TO VISIBILITY.

NYZ032-033-038>043-046>054-057>066-NYZ062>081-230000-
EAST


CITY           SKY/WX    TMP DP  RH WIND       PRES   REMARKS
ALBANY         MOSUNNY   60  26  27 W16G23    30.02R
GLENS FALLS    CLOUDY    59  30  33 W16       30.00R
POUGHKEEPSIE   SUNNY     67  28  23 NW13G21   29.97R
NEWBURGH       SUNNY     66  37  34 NW17G28   29.99R
MONTGOMERY     SUNNY     66  33  29 NW10G18   29.98R
WHITE PLAINS   PTSUNNY   67  37  33 NW8       29.96R
ISLIP          PTSUNNY   69  40  34 W10       29.94R
NEW YORK CITY  MOSUNNY   71  38  29 W14G28    29.95R
CENTRAL PARK   MOSUNNY   70  39  32 W14G29    29.99R
$$

NYZ005>009-017-018-044>046-055-056-230000-
CENTRAL


CITY           SKY/WX    TMP DP  RH WIND       PRES   REMARKS
FULTON         SUNNY     53  26  35 W17       30.10R
SYRACUSE       PTSUNNY   54  22  28 W15G23    30.10R
ROME           SUNNY     55  22  27 W24G30    30.07R
ELMIRA         PTSUNNY   59  35  40 NW14      30.08R
BINGHAMTON     MOSUNNY   54  32  43 NW12      30.06R
MONTICELLO     SUNNY     59  32  36 W15G22    30.02R
$$

NYZ026>034-041>043-230000-
NORTH


CITY           SKY/WX    TMP DP  RH WIND       PRES   REMARKS
WATERTOWN      LGT RAIN  46  40  79 NE7       30.10R
FORT DRUM      NOT AVBL
MASSENA        CLOUDY    49  22  34 NW14G24   30.09R
SARANAC LAKE   CLOUDY    43  23  45 VRB7G20   30.02R
PLATTSBURGH    CLOUDY    51  24  34 NW16G25   30.03R
$$

NYZ001>004-010>016-019>021-230000-
WEST


CITY           SKY/WX    TMP DP  RH WIND       PRES   REMARKS
NIAGARA FALLS  MOSUNNY   53  27  36 N8        30.19R
BUFFALO        MOSUNNY   55  23  28 N16       30.18R
DUNKIRK        SUNNY     52  32  46 W13G24    30.21R
JAMESTOWN      SUNNY     52  21  30 NW18G26   30.21R
WELLSVILLE     MOSUNNY   52  29  41 NW21G31   30.14R
ROCHESTER      MOSUNNY   53  23  31 NW14G29   30.16R
PENN YAN       CLOUDY    54  32  43 NW7       30.12R
$$

             KEY
       WCI = WIND CHILL INDEX
       VSB = VISIBILITY
       HX  = HEAT INDEX
$$



USA.gov is the U.S. government's official web portal to all federal, state and local government web resources and services.